| time (UTC) | temp C | wind direction | speed KPH | gust KPH | rain 1hr cm | rain 24hr cm | rain mn cm | humidity % | barometer mb |
| 20260504024033 | 3 | 291 | 0.0 | 0.0 | 0.00 | 0.00 | 0.00 | 67 | 1011.0 |
| 20260504022032 | 3 | 291 | 0.0 | 0.0 | 0.00 | 0.00 | 0.00 | 69 | 1010.8 |
| 20260504021926 | 3 | 291 | 0.0 | 0.0 | 0.00 | 0.00 | 0.00 | 69 | 1010.8 |
| 20260504020033 | 4 | 291 | 0.0 | 0.0 | 0.00 | 0.00 | 0.00 | 70 | 1010.7 |
| 20260504014033 | 5 | 291 | 0.0 | 0.0 | 0.00 | 0.00 | 0.00 | 69 | 1010.6 |
| 20260504011926 | 5 | 291 | 0.0 | 0.0 | 0.00 | 0.00 | 0.00 | 66 | 1010.4 |
| 20260504010033 | 6 | 291 | 0.0 | 0.0 | 0.00 | 0.00 | 0.00 | 63 | 1010.0 |
| 20260504004034 | 7 | 291 | 0.0 | 0.0 | 0.00 | 0.00 | 0.00 | 57 | 1009.6 |
| 20260504002033 | 8 | 291 | 0.0 | 0.0 | 0.00 | 0.00 | 0.00 | 53 | 1009.4 |
| 20260504001926 | 8 | 291 | 0.0 | 0.0 | 0.00 | 0.00 | 0.00 | 53 | 1009.4 |
| 20260504000033 | 10 | 291 | 0.0 | 12.9 | 0.00 | 0.00 | 0.00 | 49 | 1009.3 |
| 20260503234034 | 10 | 291 | 0.0 | 12.9 | 0.00 | 0.00 | 0.00 | 45 | 1009.1 |
| 20260503232032 | 11 | 291 | 0.0 | 12.9 | 0.00 | 0.00 | 0.00 | 42 | 1009.1 |
| 20260503231926 | 11 | 291 | 0.0 | 12.9 | 0.00 | 0.00 | 0.00 | 42 | 1009.1 |
| 20260503230034 | 11 | 355 | 0.0 | 16.1 | 0.00 | 0.00 | 0.00 | 42 | 1008.8 |
| 20260503224032 | 11 | 317 | 0.0 | 16.1 | 0.00 | 0.00 | 0.00 | 43 | 1008.7 |
| 20260503222034 | 11 | 300 | 8.0 | 16.1 | 0.00 | 0.00 | 0.00 | 42 | 1008.5 |
| 20260503221926 | 11 | 308 | 12.9 | 16.1 | 0.00 | 0.00 | 0.00 | 42 | 1008.7 |
| 20260503220034 | 11 | 302 | 8.0 | 22.5 | 0.00 | 0.00 | 0.00 | 41 | 1008.4 |
| 20260503214034 | 11 | 291 | 3.2 | 22.5 | 0.00 | 0.00 | 0.00 | 41 | 1008.1 |
| 20260503212033 | 12 | 284 | 9.7 | 22.5 | 0.00 | 0.03 | 0.00 | 41 | 1008.0 |
| 20260503211926 | 12 | 284 | 9.7 | 22.5 | 0.00 | 0.03 | 0.00 | 41 | 1008.0 |
| 20260503204034 | 11 | 303 | 0.0 | 19.3 | 0.00 | 0.03 | 0.00 | 43 | 1007.5 |
| 20260503202034 | 11 | 313 | 12.9 | 19.3 | 0.00 | 0.13 | 0.00 | 41 | 1007.2 |
| 20260503201926 | 11 | 297 | 14.5 | 19.3 | 0.00 | 0.13 | 0.00 | 42 | 1007.3 |
| 20260503200034 | 12 | 307 | 1.6 | 20.9 | 0.00 | 0.13 | 0.00 | 40 | 1007.1 |
| 20260503194034 | 11 | 306 | 0.0 | 20.9 | 0.00 | 0.13 | 0.00 | 44 | 1007.1 |
| 20260503192034 | 11 | 315 | 0.0 | 20.9 | 0.00 | 0.13 | 0.00 | 47 | 1007.1 |
| 20260503191926 | 11 | 279 | 0.0 | 20.9 | 0.00 | 0.13 | 0.00 | 46 | 1007.0 |
| 20260503190034 | 11 | 294 | 8.0 | 19.3 | 0.00 | 0.13 | 0.00 | 43 | 1007.0 |
| 20260503184034 | 11 | 303 | 8.0 | 19.3 | 0.00 | 0.13 | 0.00 | 44 | 1007.1 |
| 20260503182034 | 11 | 286 | 6.4 | 19.3 | 0.00 | 0.13 | 0.00 | 46 | 1007.0 |
| 20260503181926 | 11 | 294 | 14.5 | 19.3 | 0.00 | 0.13 | 0.00 | 46 | 1007.1 |
| 20260503180034 | 11 | 289 | 9.7 | 17.7 | 0.00 | 0.13 | 0.00 | 47 | 1006.9 |
| 20260503174032 | 12 | 310 | 0.0 | 17.7 | 0.00 | 0.13 | 0.00 | 46 | 1006.8 |
| 20260503172032 | 11 | 306 | 8.0 | 17.7 | 0.00 | 0.15 | 0.00 | 48 | 1006.7 |
| 20260503171926 | 11 | 306 | 11.3 | 17.7 | 0.00 | 0.15 | 0.00 | 48 | 1006.8 |
| 20260503072032 | 6 | 300 | 0.0 | 0.0 | 0.00 | 0.23 | 0.00 | 68 | 1008.5 |
| 20260503071926 | 6 | 300 | 0.0 | 0.0 | 0.00 | 0.23 | 0.00 | 68 | 1008.5 |
| 20260503054032 | 6 | 300 | 0.0 | 0.0 | 0.00 | 0.23 | 0.00 | 67 | 1009.6 |
| 20260503052032 | 6 | 300 | 0.0 | 0.0 | 0.00 | 0.23 | 0.00 | 63 | 1009.9 |
| 20260503051926 | 6 | 300 | 0.0 | 0.0 | 0.00 | 0.23 | 0.00 | 64 | 1010.0 |
| 20260503050032 | 7 | 300 | 0.0 | 0.0 | 0.00 | 0.23 | 0.00 | 63 | 1009.9 |
| 20260503044032 | 7 | 300 | 0.0 | 0.0 | 0.00 | 0.23 | 0.00 | 56 | 1010.1 |
| 20260503042032 | 7 | 300 | 0.0 | 0.0 | 0.00 | 0.23 | 0.00 | 42 | 1010.4 |
| 20260503041925 | 7 | 300 | 0.0 | 0.0 | 0.00 | 0.23 | 0.00 | 43 | 1010.4 |
| 20260503040032 | 7 | 300 | 0.0 | 0.0 | 0.00 | 0.23 | 0.23 | 29 | 1010.3 |
| 20260503034032 | 7 | 300 | 0.0 | 0.0 | 0.00 | 0.23 | 0.23 | 25 | 1010.7 |
| 20260503032033 | 7 | 300 | 0.0 | 0.0 | 0.00 | 0.23 | 0.23 | 14 | 1010.5 |
| 20260503031925 | 7 | 300 | 0.0 | 0.0 | 0.00 | 0.23 | 0.23 | 13 | 1010.5 |
| 20260503030032 | 8 | 300 | 0.0 | 0.0 | 0.00 | 0.23 | 0.23 | 2 | 1010.5 |